DW4338 Weather Reports


Display with metric or nautical units.
time (UTC)temp
F
wind
direction
speed
MPH
gust
MPH
rain 1hr
in
rain 24hr
in
rain mn
in
humidity
%
barometer
mb
20260503033042 39 327 5.0 0.0 0.00 0.00 0.00 79 1010.1
20260503031531 39 327 4.0 0.0 0.00 0.00 0.00 79 1010.2
20260503030029 39 325 4.0 0.0 0.00 0.00 0.00 79 1010.2
20260503024529 39 320 4.0 0.0 0.00 0.00 0.00 79 1010.3
20260503023028 39 293 4.0 0.0 0.00 0.00 0.00 78 1010.3
20260503021528 39 321 4.0 0.0 0.00 0.00 0.00 78 1010.3
20260503020025 39 360 4.0 0.0 0.00 0.00 0.00 78 1010.3
20260503014538 39 315 4.0 0.0 0.00 0.00 0.00 77 1010.2
20260503013023 39 321 5.0 0.0 0.00 0.00 0.00 77 1010.4
20260503011522 39 301 5.0 0.0 0.00 0.00 0.00 77 1010.3
20260503010021 39 343 5.0 0.0 0.00 0.00 0.00 78 1010.3
20260503004526 39 317 4.0 0.0 0.00 0.00 0.00 79 1010.5
20260503003018 40 320 4.0 0.0 0.00 0.00 0.00 79 1010.6
20260503001518 40 337 5.0 0.0 0.00 0.00 0.00 78 1010.6
20260503000016 40 323 5.0 0.0 0.00 0.00 0.00 78 1010.7
20260502234515 40 336 5.0 0.0 0.00 0.00 0.00 78 1010.7
20260502233014 40 337 5.0 0.0 0.00 0.00 0.00 78 1010.8
20260502231516 40 348 5.0 0.0 0.00 0.00 0.00 78 1010.9
20260502230015 40 331 5.0 0.0 0.00 0.00 0.00 78 1011.0
20260502224510 40 343 5.0 0.0 0.00 0.00 0.00 78 1010.9
20260502223009 40 332 6.0 0.0 0.00 0.00 0.00 78 1010.8
20260502221506 40 335 6.0 0.0 0.00 0.00 0.00 78 1010.9
20260502220004 40 346 5.0 0.0 0.00 0.00 0.22 78 1011.0
20260502214506 40 331 6.0 0.0 0.00 0.00 0.22 78 1011.2
20260502213003 40 279 5.0 0.0 0.00 0.00 0.22 77 1011.0
20260502211637 40 331 6.0 0.0 0.00 0.00 0.22 77 1011.2
20260502210001 40 346 5.0 0.0 0.00 0.00 0.22 77 1011.1
20260502204600 40 342 6.0 0.0 0.00 0.00 0.22 77 1011.0
20260502203104 40 336 5.0 0.0 0.00 0.00 0.22 77 1010.9
20260502201606 41 333 6.0 0.0 0.00 0.00 0.22 76 1010.8
20260502200057 41 331 7.0 0.0 0.00 0.00 0.22 77 1010.8
20260502194606 41 302 6.0 0.0 0.00 0.00 0.22 77 1010.8
20260502193053 42 343 6.0 0.0 0.00 0.00 0.22 75 1010.8
20260502191551 42 12 7.0 0.0 0.00 0.00 0.22 75 1010.7
20260502190048 42 319 7.0 0.0 0.00 0.00 0.22 74 1010.6
20260502184555 43 22 6.0 0.0 0.00 0.00 0.22 74 1010.7
20260502183057 43 346 8.0 0.0 0.00 0.00 0.22 73 1010.6
20260502181547 44 12 7.0 0.0 0.00 0.00 0.22 73 1010.6
20260502163041 43 5 4.0 0.0 0.00 0.00 0.22 91 1010.8
20260502161534 43 327 3.0 0.0 0.00 0.00 0.21 91 1010.8
20260502151526 44 323 3.0 0.0 0.00 0.00 0.21 90 1011.2
20260502123019 47 143 2.0 0.0 0.00 0.00 0.20 89 1011.2
20260502121517 47 143 2.0 0.0 0.00 0.00 0.20 89 1011.2
20260502114515 47 196 2.0 0.0 0.00 0.00 0.20 89 1011.3
20260502113014 47 196 2.0 0.0 0.00 0.00 0.20 89 1011.4
20260502111514 47 196 4.0 0.0 0.00 0.00 0.20 89 1011.6
20260502110013 47 202 3.0 0.0 0.00 0.00 0.20 89 1011.4
20260502104520 47 194 4.0 0.0 0.00 0.00 0.20 89 1011.5
20260502103014 46 216 4.0 0.0 0.00 0.00 0.20 89 1011.7
20260502101530 46 230 4.0 0.0 0.00 0.00 0.20 89 1011.5
20260502091511 46 189 6.0 0.0 0.00 0.00 0.20 88 1011.3
20260502071507 46 188 1.0 0.0 0.00 0.00 0.20 89 1011.1
20260502070008 46 188 1.0 0.0 0.00 0.00 0.20 90 1011.0
20260502064505 45 188 1.0 0.0 0.00 0.00 0.20 90 1010.9
20260502063004 45 188 1.0 0.0 0.00 0.00 0.20 90 1011.0
20260502061504 45 136 3.0 0.0 0.00 0.00 0.20 90 1010.7
20260502060009 45 153 3.0 0.0 0.00 0.00 0.20 90 1011.1
20260502054503 45 140 4.0 0.0 0.00 0.00 0.20 90 1010.9
20260502053002 45 136 6.0 0.0 0.00 0.00 0.20 90 1011.0
20260502051501 45 144 5.0 0.0 0.00 0.00 0.19 90 1011.2
20260502050105 46 138 5.0 0.0 0.00 0.00 0.17 89 1011.2
20260502044600 46 163 4.0 0.0 0.00 0.00 0.17 89 1011.2
20260502043104 46 155 4.0 0.0 0.00 0.00 0.17 89 1011.3
20260502041558 46 177 3.0 0.0 0.00 0.00 0.16 89 1011.4
20260502040100 46 153 4.0 0.0 0.00 0.00 0.14 89 1011.4
20260502034556 46 187 4.0 0.0 0.00 0.00 0.14 89 1011.6